Regional Weather Roundup
Issued by NWS

Home | Current Version | Previous Version | Graphics & Text | Print | Product List | Glossary On
Versions: 1 2 3 4 5 6 7 8 9 10 11 12 13 14 15 16 17 18 19 20 21 22 23 24 25 26 27 28 29 30 31 32 33 34 35 36 37 38 39 40 41 42 43 44 45 46 47 48 49 50
000
ASUS45 KPSR 030410
RWRAZ

ARIZONA HOURLY REGIONAL WEATHER ROUNDUP
NATIONAL WEATHER SERVICE PHOENIX AZ
900 PM MST WED SEP 02 2015

NOTE: FAIR INDICATES FEW OR NO CLOUDS BELOW 12,000 FEET WITH NO
SIGNIFICANT WEATHER AND/OR OBSTRUCTIONS TO VISIBILITY.

AZZ001>003-036-030500-
NORTHWEST ARIZONA

CITY           SKY/WX    TMP DP  RH WIND       PRES   REMARKS
BULLHEAD CITY  PTCLDY    95  41  15 S10       29.77R
KINGMAN        PTCLDY    76  37  24 S12       29.98R
$$

AZZ004>008-015-016-018-030500-
NORTH CENTRAL ARIZONA

CITY           SKY/WX    TMP DP  RH WIND       PRES   REMARKS
GRAND CANYON   PTCLDY    57  44  62 CALM      30.24R
WILLIAMS       PTCLDY    64  37  36 S8        30.30R
PRESCOTT       PTCLDY    69  40  34 S5        30.14R
FLAGSTAFF      MOCLDY    58  41  53 CALM      30.29R
PAYSON         MOCLDY    73  43  33 CALM      30.18R
PAGE           MOCLDY    80  54  40 SW10      30.02R
$$

AZZ009>014-017-030500-
NORTHEAST ARIZONA

CITY           SKY/WX    TMP DP  RH WIND       PRES   REMARKS
WINSLOW        PTCLDY    67  56  67 SE10      30.16R
SAINT JOHNS    CLOUDY    63  54  72 S9        30.22R
WINDOW ROCK    MOCLDY    58  51  78 N7        30.30R
SHOW LOW       MOCLDY    59  48  67 CALM      30.28R
$$

AZZ023-030500-
GREATER PHOENIX AREA

CITY           SKY/WX    TMP DP  RH WIND       PRES   REMARKS
PHOENIX        MOCLDY    94  53  25 W6        29.83R
BUCKEYE        CLEAR     90  54  29 CALM      29.83S
LUKE AFB       CLEAR     93  57  29 CALM      29.83R
DEER VALLEY    CLEAR     90  49  24 E5        29.85R
SCOTTSDALE     CLEAR     91  52  26 CALM      29.87R
MESA-GATEWAY   PTCLDY    90  55  31 NE6       29.87R
CHANDLER       MOCLDY    93  55  27 N9        29.84R
$$

AZZ027-028-030500-
SOUTHWEST MARICOPA COUNTY AND PINAL COUNTY

CITY           SKY/WX    TMP DP  RH WIND       PRES   REMARKS
CASA GRANDE    PTCLDY    91  54  27 W7        29.86R
GILA BEND      CLEAR     92  46  20 SW8       29.82R
$$

AZZ503-504-507>509-030500-
SOUTHEAST ARIZONA

CITY           SKY/WX    TMP DP  RH WIND       PRES   REMARKS
TUCSON         MOCLDY    83  58  42 SE9       30.00R
DAVIS-MONTHAN  PTCLDY    82  59  46 SE12      29.98R
NOGALES        CLOUDY    70  63  78 E3        30.09R
SIERRA VISTA   CLOUDY    71  57  62 S5        30.17S
DOUGLAS        CLOUDY    71  57  61 CALM      30.12S
SAFFORD        CLOUDY    74  61  63 SE7       30.06R
$$

AZZ020-021-025-026-031-030500-
SOUTHWEST ARIZONA

CITY           SKY/WX    TMP DP  RH WIND       PRES   REMARKS
YUMA           MOCLDY    92  41  17 SE12      29.77R
$$

CAZ031-033-041-043-047-048-061-030500-
SOUTHERN CALIFORNIA

CITY           SKY/WX    TMP DP  RH WIND       PRES   REMARKS
DOWNTOWN L.A.  CLEAR     69  60  73 W3        29.91R
L.A. AIRPORT   PTCLDY    68  61  78 W9        29.92R
SAN DIEGO      PTCLDY    70  58  65 W7        29.95R
BURBANK        CLEAR     69  58  67 S5        29.91R
ONTARIO        PTCLDY    70  58  65 W10       29.92R
RIVERSIDE      PTCLDY    71  59  65 VRB6      29.92R
PALM SPRINGS   MOCLDY    91  44  19 NW17G24   29.78R
EL CENTRO NAS  PTCLDY    91  46  21 W10       29.76R
IMPERIAL       PTCLDY    91  48  22 W5        29.73R
BLYTHE         PTCLDY    93  50  23 S10       29.76R
NEEDLES        PTCLDY    95  39  14 SW9       29.78R
$$

NVZ020-UTZ003-030500-
SOUTHERN NEVADA-UTAH

CITY           SKY/WX    TMP DP  RH WIND       PRES   REMARKS
LAS VEGAS      PTCLDY    91  35  13 S10G18    29.79R
SALT LAKE CITY MOCLDY    82  41  23 S15       29.86R
$$

NMZ009-TXZ055-030500-
NEW MEXICO-WEST TEXAS

CITY           SKY/WX    TMP DP  RH WIND       PRES   REMARKS
ALBUQUERQUE    MOCLDY    73  49  42 W5        30.21R
EL PASO        CLOUDY    85  48  27 N13       30.03R
$$


........................KEY........................
SKY/WX - SKY CONDITION/WEATHER
TMP    - TEMPERATURE IN FAHRENHEIT
DP     - DEW POINT IN FAHRENHEIT
RH     - RELATIVE HUMIDITY IN PERCENT
WIND   - DIRECTION AND SPEED IN MILES PER HOUR (MPH)
VRB    - VARIABLE WIND DIRECTION
PRES   - MEAN SEA LEVEL PRESSURE IN INCHES OF MERCURY
         F - FALLING PRESSURE   R - RISING PRESSURE
         S - STEADY PRESSURE
VSB    - VISIBILITY IN MILES
HX     - HEAT INDEX IN FAHRENHEIT
WCI    - WIND CHILL INDEX IN FAHRENHEIT
TC     - TEMPERATURE IN CELSIUS WHICH IS ALSO KNOWN AS
         TEMPERATURE IN CENTIGRADE
AFB    - AIR FORCE BASE
         LUKE AFB IS LUKE AIR FORCE BASE
         DAVIS-MONTHAN IS DAVIS-MONTHAN AIR FORCE BASE
NAS    - NAVAL AIR STATION
         EL CENTRO NAS IS EL CENTRO NAVAL AIR STATION
N/A    - NOT AVAILABLE



USA.gov is the U.S. government's official web portal to all federal, state and local government web resources and services.